Weather History for Lone Rock, WI

Change the Weather History Date:

Sunday, May 12, 2013

  Actual Average Record
Temperature  
Mean Temperature 46 °F -  
Max Temperature 57 °F 65 °F 84 °F (2011)
Min Temperature 37 °F 45 °F 36 °F (2008)
Degree Days  
Heating Degree Days 19    
Moisture  
Dew Point 24 °F    
Average Humidity 43    
Maximum Humidity 73    
Minimum Humidity 25    
Precipitation  
Precipitation 0.00 in - - ()
Sea Level Pressure  
Sea Level Pressure 30.11 in    
Wind  
Wind Speed 9 mph (NW)    
Max Wind Speed 16 mph    
Max Gust Speed 28 mph    
Visibility 10 miles    
Events      
Averages and records for this station are not official NWS values.
T = Trace of Precipitation, MM = Missing Value Source: NWS Daily Summary

Daily Weather History Graph

Daily Weather History Graph

Search for Another Location

Airport:

Trip Planner

Search our weather history database for the weather conditions in past years. The results will help you decide how hot, cold, wet, or windy it might be!

Date:

Astronomy

May. 12, 2013 Rise Set
Actual Time 5:39 AM CDT 8:14 PM CDT
Civil Twilight 5:07 AM CDT 8:47 PM CDT
Nautical Twilight 4:26 AM CDT 9:28 PM CDT
Astronomical Twilight 3:40 AM CDT 10:14 PM CDT
Moon 7:34 AM CDT (5/12) 10:42 PM CDT (5/12)
Length of Visible Light 15h 40m
Length of Day
14h 35m
Waxing Crescent, 7% of the Moon is Illuminated
May 12
Waxing Crescent
May 17
First Quarter
May 24
Full
May 31
Last Quarter
Jun 8
New

Hourly Weather History & Observations

Time (CDT) Temp. Windchill Dew Point Humidity Pressure Visibility Wind Dir Wind Speed Gust Speed Precip Events Conditions
12:56 AM 43.0 °F 37.7 °F 24.1 °F 47% 30.09 in 10.0 mi WNW 9.2 mph - N/A   Clear
1:56 AM 42.1 °F 37.7 °F 24.1 °F 49% 30.09 in 10.0 mi WNW 6.9 mph - N/A   Scattered Clouds
2:56 AM 41.0 °F 37.1 °F 26.1 °F 55% 30.10 in 10.0 mi WNW 5.8 mph - N/A   Mostly Cloudy
3:56 AM 41.0 °F 35.2 °F 25.0 °F 53% 30.11 in 10.0 mi NW 9.2 mph - N/A   Clear
4:56 AM 39.0 °F 35.7 °F 25.0 °F 57% 30.11 in 10.0 mi WNW 4.6 mph - N/A   Clear
5:56 AM 39.0 °F 34.8 °F 24.1 °F 55% 30.12 in 10.0 mi NW 5.8 mph - N/A   Clear
6:56 AM 39.9 °F 33.9 °F 25.0 °F 55% 30.14 in 10.0 mi NW 9.2 mph 16.1 mph N/A   Clear
7:56 AM 42.1 °F 34.9 °F 25.0 °F 51% 30.14 in 10.0 mi North 13.8 mph 20.7 mph N/A   Clear
8:56 AM 44.1 °F 39.5 °F 25.0 °F 47% 30.15 in 10.0 mi North 8.1 mph - N/A   Clear
9:56 AM 46.0 °F 41.0 °F 24.1 °F 42% 30.15 in 10.0 mi WNW 10.4 mph 19.6 mph N/A   Clear
10:56 AM 48.0 °F - 24.1 °F 39% 30.15 in 10.0 mi WNW 12.7 mph 20.7 mph N/A   Clear
11:56 AM 50.0 °F - 21.0 °F 32% 30.14 in 10.0 mi WNW 12.7 mph 21.9 mph N/A   Clear
12:56 PM 52.0 °F - 18.0 °F 26% 30.13 in 10.0 mi NNW 16.1 mph 27.6 mph N/A   Clear
1:56 PM 54.0 °F - 21.0 °F 28% 30.11 in 10.0 mi West 12.7 mph 24.2 mph N/A   Clear
2:56 PM 54.0 °F - 19.9 °F 26% 30.10 in 10.0 mi WNW 16.1 mph 20.7 mph N/A   Clear
3:56 PM 55.9 °F - 19.9 °F 25% 30.08 in 10.0 mi NW 11.5 mph 17.3 mph N/A   Clear
4:56 PM 55.9 °F - 21.0 °F 26% 30.08 in 10.0 mi NNW 11.5 mph 21.9 mph N/A   Clear
5:56 PM 55.9 °F - 19.9 °F 25% 30.08 in 10.0 mi NW 11.5 mph 26.5 mph N/A   Clear
6:56 PM 55.0 °F - 21.0 °F 27% 30.07 in 10.0 mi WNW 11.5 mph - N/A   Clear
7:56 PM 53.1 °F - 19.9 °F 27% 30.08 in 10.0 mi NW 8.1 mph - N/A   Clear
8:56 PM 50.0 °F - 23.0 °F 35% 30.09 in 10.0 mi WNW 4.6 mph - N/A   Clear
9:56 PM 44.1 °F - 28.9 °F 55% 30.11 in 10.0 mi Calm Calm - N/A   Clear
10:56 PM 37.9 °F - 30.0 °F 73% 30.12 in 10.0 mi Calm Calm - N/A   Clear
11:56 PM 39.0 °F 36.8 °F 30.9 °F 73% 30.11 in 10.0 mi West 3.5 mph - N/A   Clear